Time,TemperatureF,DewpointF,PressureIn,WindDirection,WindDirectionDegrees,WindSpeedMPH,WindSpeedGustMPH,Humidity,HourlyPrecipIn,Conditions,Clouds,dailyrainin,SoftwareType,DateUTC
2013-04-30 00:02:00,57.5,52.4,29.91,SSW,193,0.0,0.0,83,0.00,,,0.00,Wunderground v.1.15,2013-04-30 04:02:00,
2013-04-30 00:08:00,57.3,52.2,29.91,SSW,193,0.0,3.0,83,0.00,,,0.00,Wunderground v.1.15,2013-04-30 04:08:00,
2013-04-30 00:14:00,57.4,52.6,29.91,South,181,1.0,1.0,84,0.00,,,0.00,Wunderground v.1.15,2013-04-30 04:14:00,
2013-04-30 00:18:00,57.4,52.3,29.91,South,173,2.0,3.0,83,0.00,,,0.00,Wunderground v.1.15,2013-04-30 04:18:00,
2013-04-30 00:24:00,57.4,52.3,29.91,South,173,1.0,2.0,83,0.00,,,0.00,Wunderground v.1.15,2013-04-30 04:24:00,
2013-04-30 00:30:00,57.4,52.6,29.91,SE,138,1.0,2.0,84,0.00,,,0.00,Wunderground v.1.15,2013-04-30 04:30:00,
2013-04-30 00:36:00,57.4,52.6,29.91,SE,136,2.0,3.0,84,0.00,,,0.00,Wunderground v.1.15,2013-04-30 04:36:00,
2013-04-30 00:42:00,57.5,52.4,29.91,SE,135,2.0,4.0,83,0.00,,,0.00,Wunderground v.1.15,2013-04-30 04:42:00,
2013-04-30 00:48:00,57.5,52.4,29.91,SE,132,2.0,4.0,83,0.00,,,0.00,Wunderground v.1.15,2013-04-30 04:48:00,
2013-04-30 00:54:00,57.5,52.4,29.91,SE,131,2.0,2.0,83,0.00,,,0.00,Wunderground v.1.15,2013-04-30 04:54:00,
2013-04-30 01:00:00,57.5,52.4,29.91,SE,134,2.0,3.0,83,0.00,,,0.00,Wunderground v.1.15,2013-04-30 05:00:00,
2013-04-30 01:06:00,57.5,52.4,29.91,SE,134,2.0,3.0,83,0.00,,,0.00,Wunderground v.1.15,2013-04-30 05:06:00,
2013-04-30 01:12:00,57.4,52.6,29.91,ESE,123,2.0,3.0,84,0.00,,,0.00,Wunderground v.1.15,2013-04-30 05:12:00,
2013-04-30 01:18:00,57.5,52.4,29.91,SE,125,3.0,6.0,83,0.00,,,0.00,Wunderground v.1.15,2013-04-30 05:18:00,
2013-04-30 01:24:00,57.5,52.4,29.91,ESE,121,2.0,3.0,83,0.00,,,0.00,Wunderground v.1.15,2013-04-30 05:24:00,
2013-04-30 01:30:00,57.4,52.3,29.91,SE,124,3.0,3.0,83,0.00,,,0.00,Wunderground v.1.15,2013-04-30 05:30:00,
2013-04-30 01:36:00,57.2,52.4,29.91,ESE,123,2.0,4.0,84,0.00,,,0.00,Wunderground v.1.15,2013-04-30 05:36:00,
2013-04-30 01:42:00,57.1,52.3,29.91,ESE,123,2.0,2.0,84,0.00,,,0.00,Wunderground v.1.15,2013-04-30 05:42:00,
2013-04-30 01:48:00,57.0,52.2,29.91,ESE,123,2.0,2.0,84,0.00,,,0.00,Wunderground v.1.15,2013-04-30 05:48:00,
2013-04-30 01:54:00,56.8,52.0,29.91,SE,124,2.0,2.0,84,0.00,,,0.00,Wunderground v.1.15,2013-04-30 05:54:00,
2013-04-30 02:00:00,56.6,51.8,29.91,SE,124,1.0,1.0,84,0.00,,,0.00,Wunderground v.1.15,2013-04-30 06:00:00,
2013-04-30 02:06:00,56.5,52.0,29.90,SE,124,1.0,1.0,85,0.00,,,0.00,Wunderground v.1.15,2013-04-30 06:06:00,
2013-04-30 02:12:00,56.4,51.9,29.90,SE,124,2.0,3.0,85,0.00,,,0.00,Wunderground v.1.15,2013-04-30 06:12:00,
2013-04-30 02:18:00,56.4,51.9,29.90,ESE,120,2.0,4.0,85,0.00,,,0.00,Wunderground v.1.15,2013-04-30 06:18:00,
2013-04-30 02:24:00,56.3,51.8,29.90,ESE,120,2.0,2.0,85,0.00,,,0.00,Wunderground v.1.15,2013-04-30 06:24:00,
2013-04-30 02:30:00,56.1,51.7,29.90,ESE,120,0.0,0.0,85,0.00,,,0.00,Wunderground v.1.15,2013-04-30 06:30:00,
2013-04-30 02:36:00,56.0,51.6,29.90,ESE,119,0.0,1.0,85,0.00,,,0.00,Wunderground v.1.15,2013-04-30 06:36:00,
2013-04-30 02:42:00,55.9,51.5,29.90,ESE,120,0.0,0.0,85,0.00,,,0.00,Wunderground v.1.15,2013-04-30 06:42:00,
2013-04-30 02:48:00,55.8,51.4,29.90,ESE,120,0.0,0.0,85,0.00,,,0.00,Wunderground v.1.15,2013-04-30 06:48:00,
2013-04-30 02:54:00,55.7,51.6,29.90,ESE,120,0.0,0.0,86,0.00,,,0.00,Wunderground v.1.15,2013-04-30 06:54:00,
2013-04-30 03:00:00,55.5,51.4,29.90,ESE,120,0.0,0.0,86,0.00,,,0.00,Wunderground v.1.15,2013-04-30 07:00:00,
2013-04-30 03:06:00,55.4,51.3,29.90,ESE,120,0.0,0.0,86,0.00,,,0.00,Wunderground v.1.15,2013-04-30 07:06:00,
2013-04-30 03:12:00,55.0,50.9,29.90,ESE,120,0.0,0.0,86,0.00,,,0.00,Wunderground v.1.15,2013-04-30 07:12:00,
2013-04-30 03:18:00,54.7,50.9,29.90,ESE,119,0.0,0.0,87,0.00,,,0.00,Wunderground v.1.15,2013-04-30 07:18:00,
2013-04-30 03:24:00,54.5,51.0,29.90,ESE,120,0.0,0.0,88,0.00,,,0.00,Wunderground v.1.15,2013-04-30 07:24:00,
2013-04-30 03:30:00,54.4,50.9,29.90,ESE,120,0.0,0.0,88,0.00,,,0.00,Wunderground v.1.15,2013-04-30 07:30:00,
2013-04-30 03:36:00,54.3,50.8,29.90,ESE,119,0.0,0.0,88,0.00,,,0.00,Wunderground v.1.15,2013-04-30 07:36:00,
2013-04-30 03:42:00,54.3,50.8,29.90,ESE,120,0.0,0.0,88,0.00,,,0.00,Wunderground v.1.15,2013-04-30 07:42:00,
2013-04-30 03:48:00,54.3,51.1,29.90,ESE,120,0.0,2.0,89,0.00,,,0.00,Wunderground v.1.15,2013-04-30 07:48:00,
2013-04-30 03:54:00,54.4,50.9,29.90,ESE,119,0.0,2.0,88,0.00,,,0.00,Wunderground v.1.15,2013-04-30 07:54:00,
2013-04-30 04:00:00,54.3,50.8,29.90,ESE,120,0.0,0.0,88,0.00,,,0.00,Wunderground v.1.15,2013-04-30 08:00:00,
2013-04-30 04:06:00,54.1,50.6,29.91,ESE,120,0.0,0.0,88,0.00,,,0.00,Wunderground v.1.15,2013-04-30 08:06:00,
2013-04-30 04:12:00,54.0,50.8,29.91,ESE,119,0.0,0.0,89,0.00,,,0.00,Wunderground v.1.15,2013-04-30 08:12:00,
2013-04-30 04:18:00,53.7,50.5,29.91,ESE,120,0.0,0.0,89,0.00,,,0.00,Wunderground v.1.15,2013-04-30 08:18:00,
2013-04-30 04:24:00,53.4,50.2,29.91,ESE,120,0.0,0.0,89,0.00,,,0.00,Wunderground v.1.15,2013-04-30 08:24:00,
2013-04-30 04:30:00,53.1,50.2,29.91,ESE,120,0.0,0.0,90,0.00,,,0.00,Wunderground v.1.15,2013-04-30 08:30:00,
2013-04-30 04:36:00,52.7,49.8,29.91,ESE,120,0.0,0.0,90,0.00,,,0.00,Wunderground v.1.15,2013-04-30 08:36:00,
2013-04-30 04:42:00,52.3,49.5,29.91,ESE,120,0.0,0.0,90,0.00,,,0.00,Wunderground v.1.15,2013-04-30 08:42:00,
2013-04-30 04:48:00,52.1,49.8,29.91,ESE,120,0.0,0.0,92,0.00,,,0.00,Wunderground v.1.15,2013-04-30 08:48:00,
2013-04-30 04:54:00,52.0,49.7,29.91,ESE,120,0.0,0.0,92,0.00,,,0.00,Wunderground v.1.15,2013-04-30 08:54:00,
2013-04-30 05:00:00,52.1,50.1,29.91,ESE,119,0.0,0.0,93,0.00,,,0.00,Wunderground v.1.15,2013-04-30 09:00:00,
2013-04-30 05:06:00,52.0,50.0,29.91,ESE,119,0.0,0.0,93,0.00,,,0.00,Wunderground v.1.15,2013-04-30 09:06:00,
2013-04-30 05:12:00,51.8,49.8,29.91,ESE,119,0.0,0.0,93,0.00,,,0.00,Wunderground v.1.15,2013-04-30 09:12:00,
2013-04-30 05:18:00,51.6,49.6,29.91,ESE,120,0.0,0.0,93,0.00,,,0.00,Wunderground v.1.15,2013-04-30 09:18:00,
2013-04-30 05:24:00,51.5,49.5,29.91,ESE,119,0.0,0.0,93,0.00,,,0.00,Wunderground v.1.15,2013-04-30 09:24:00,
2013-04-30 05:30:00,51.4,49.4,29.91,ESE,119,0.0,0.0,93,0.00,,,0.00,Wunderground v.1.15,2013-04-30 09:30:00,
2013-04-30 05:36:00,51.3,49.3,29.91,ESE,120,0.0,0.0,93,0.00,,,0.00,Wunderground v.1.15,2013-04-30 09:36:00,
2013-04-30 05:42:00,51.3,49.3,29.91,ESE,119,0.0,0.0,93,0.00,,,0.00,Wunderground v.1.15,2013-04-30 09:42:00,
2013-04-30 05:48:00,51.2,49.2,29.91,ESE,120,0.0,0.0,93,0.00,,,0.00,Wunderground v.1.15,2013-04-30 09:48:00,
2013-04-30 05:54:00,50.9,48.9,29.91,ESE,120,0.0,0.0,93,0.00,,,0.00,Wunderground v.1.15,2013-04-30 09:54:00,
2013-04-30 06:00:00,50.8,49.1,29.91,ESE,119,0.0,0.0,94,0.00,,,0.00,Wunderground v.1.15,2013-04-30 10:00:00,
2013-04-30 06:06:00,50.7,49.0,29.91,ESE,119,0.0,0.0,94,0.00,,,0.00,Wunderground v.1.15,2013-04-30 10:06:00,
2013-04-30 06:12:00,50.7,49.0,29.91,ESE,119,0.0,0.0,94,0.00,,,0.00,Wunderground v.1.15,2013-04-30 10:12:00,
2013-04-30 06:18:00,50.6,48.9,29.91,ESE,119,0.0,0.0,94,0.00,,,0.00,Wunderground v.1.15,2013-04-30 10:18:00,
2013-04-30 06:24:00,50.6,48.9,29.91,ESE,119,0.0,0.0,94,0.00,,,0.00,Wunderground v.1.15,2013-04-30 10:24:00,
2013-04-30 06:30:00,50.5,49.1,29.92,ESE,120,0.0,0.0,95,0.00,,,0.00,Wunderground v.1.15,2013-04-30 10:30:00,
2013-04-30 06:36:00,50.5,49.1,29.92,ESE,120,0.0,0.0,95,0.00,,,0.00,Wunderground v.1.15,2013-04-30 10:36:00,
2013-04-30 06:42:00,50.4,49.0,29.92,ESE,119,0.0,0.0,95,0.00,,,0.00,Wunderground v.1.15,2013-04-30 10:42:00,
2013-04-30 06:48:00,50.4,49.0,29.92,ESE,120,0.0,0.0,95,0.00,,,0.00,Wunderground v.1.15,2013-04-30 10:48:00,
2013-04-30 06:54:00,50.4,49.0,29.93,ESE,120,0.0,0.0,95,0.00,,,0.00,Wunderground v.1.15,2013-04-30 10:54:00,
2013-04-30 07:00:00,50.3,48.9,29.93,ESE,119,0.0,0.0,95,0.00,,,0.00,Wunderground v.1.15,2013-04-30 11:00:00,
2013-04-30 07:06:00,50.1,48.7,29.93,ESE,119,0.0,0.0,95,0.00,,,0.00,Wunderground v.1.15,2013-04-30 11:06:00,
2013-04-30 07:12:00,50.1,48.7,29.93,ESE,119,0.0,0.0,95,0.00,,,0.00,Wunderground v.1.15,2013-04-30 11:12:00,
2013-04-30 07:18:00,50.3,48.9,29.94,ESE,119,0.0,0.0,95,0.00,,,0.00,Wunderground v.1.15,2013-04-30 11:18:00,
2013-04-30 07:24:00,50.4,49.0,29.94,ESE,120,0.0,0.0,95,0.00,,,0.00,Wunderground v.1.15,2013-04-30 11:24:00,
2013-04-30 07:30:00,50.7,49.6,29.95,ESE,120,0.0,0.0,96,0.00,,,0.00,Wunderground v.1.15,2013-04-30 11:30:00,
2013-04-30 07:36:00,50.8,49.4,29.95,ESE,119,0.0,2.0,95,0.00,,,0.00,Wunderground v.1.15,2013-04-30 11:36:00,
2013-04-30 07:42:00,51.3,50.2,29.95,ESE,120,1.0,1.0,96,0.00,,,0.00,Wunderground v.1.15,2013-04-30 11:42:00,
2013-04-30 07:48:00,51.7,50.6,29.95,ESE,120,0.0,1.0,96,0.00,,,0.00,Wunderground v.1.15,2013-04-30 11:48:00,
2013-04-30 07:54:00,52.2,51.1,29.95,ESE,120,1.0,2.0,96,0.00,,,0.00,Wunderground v.1.15,2013-04-30 11:54:00,
2013-04-30 08:00:00,52.8,51.7,29.95,ESE,120,1.0,1.0,96,0.00,,,0.00,Wunderground v.1.15,2013-04-30 12:00:00,
2013-04-30 08:06:00,53.3,52.2,29.95,ESE,119,1.0,3.0,96,0.00,,,0.00,Wunderground v.1.15,2013-04-30 12:06:00,
2013-04-30 08:12:00,53.7,52.6,29.95,ESE,119,1.0,3.0,96,0.00,,,0.00,Wunderground v.1.15,2013-04-30 12:12:00,
2013-04-30 08:18:00,54.3,52.9,29.95,ESE,119,1.0,3.0,95,0.00,,,0.00,Wunderground v.1.15,2013-04-30 12:18:00,
2013-04-30 08:24:00,54.9,53.2,29.95,ESE,119,1.0,1.0,94,0.00,,,0.00,Wunderground v.1.15,2013-04-30 12:24:00,
2013-04-30 08:30:00,55.5,53.8,29.96,ESE,120,0.0,0.0,94,0.00,,,0.00,Wunderground v.1.15,2013-04-30 12:30:00,
2013-04-30 08:36:00,56.2,54.2,29.96,ESE,120,0.0,0.0,93,0.00,,,0.00,Wunderground v.1.15,2013-04-30 12:36:00,
2013-04-30 08:42:00,56.9,54.6,29.96,ESE,119,1.0,1.0,92,0.00,,,0.00,Wunderground v.1.15,2013-04-30 12:42:00,
2013-04-30 08:48:00,57.7,55.1,29.97,ESE,120,0.0,1.0,91,0.00,,,0.00,Wunderground v.1.15,2013-04-30 12:48:00,
2013-04-30 08:54:00,58.5,55.3,29.97,SE,138,1.0,3.0,89,0.00,,,0.00,Wunderground v.1.15,2013-04-30 12:54:00,
2013-04-30 09:00:00,59.3,55.4,29.96,ESE,110,4.0,4.0,87,0.00,,,0.00,Wunderground v.1.15,2013-04-30 13:00:00,
2013-04-30 09:06:00,60.0,56.1,29.97,ESE,114,3.0,5.0,87,0.00,,,0.00,Wunderground v.1.15,2013-04-30 13:06:00,
2013-04-30 09:12:00,60.6,56.4,29.96,SE,138,4.0,4.0,86,0.00,,,0.00,Wunderground v.1.15,2013-04-30 13:12:00,
2013-04-30 09:18:00,61.2,56.3,29.97,SE,125,4.0,7.0,84,0.00,,,0.00,Wunderground v.1.15,2013-04-30 13:18:00,
2013-04-30 09:24:00,61.7,56.1,29.97,ESE,115,4.0,7.0,82,0.00,,,0.00,Wunderground v.1.15,2013-04-30 13:24:00,
2013-04-30 09:30:00,62.1,56.5,29.97,SE,137,5.0,5.0,82,0.00,,,0.00,Wunderground v.1.15,2013-04-30 13:30:00,
2013-04-30 09:36:00,62.6,58.0,29.97,ESE,115,4.0,7.0,85,0.00,,,0.00,Wunderground v.1.15,2013-04-30 13:36:00,
2013-04-30 09:42:00,63.3,57.7,29.97,SE,140,3.0,4.0,82,0.00,,,0.00,Wunderground v.1.15,2013-04-30 13:42:00,
2013-04-30 09:48:00,64.0,57.0,29.98,South,177,3.0,6.0,78,0.00,,,0.00,Wunderground v.1.15,2013-04-30 13:48:00,
2013-04-30 09:54:00,64.5,57.8,29.98,SSE,154,4.0,4.0,79,0.00,,,0.00,Wunderground v.1.15,2013-04-30 13:54:00,
2013-04-30 10:00:00,64.9,57.2,29.98,South,185,3.0,3.0,76,0.00,,,0.00,Wunderground v.1.15,2013-04-30 14:00:00,
2013-04-30 10:06:00,65.4,58.4,29.98,South,171,4.0,4.0,78,0.00,,,0.00,Wunderground v.1.15,2013-04-30 14:06:00,
2013-04-30 10:12:00,66.0,59.3,29.98,SE,137,3.0,5.0,79,0.00,,,0.00,Wunderground v.1.15,2013-04-30 14:12:00,
2013-04-30 10:18:00,66.8,59.0,29.97,SSE,150,2.0,5.0,76,0.00,,,0.00,Wunderground v.1.15,2013-04-30 14:18:00,
2013-04-30 10:24:00,67.4,59.6,29.97,SE,144,1.0,1.0,76,0.00,,,0.00,Wunderground v.1.15,2013-04-30 14:24:00,
2013-04-30 10:30:00,67.9,58.9,29.98,SE,143,1.0,1.0,73,0.00,,,0.00,Wunderground v.1.15,2013-04-30 14:30:00,
2013-04-30 10:36:00,68.4,60.2,29.97,ESE,117,2.0,2.0,75,0.00,,,0.00,Wunderground v.1.15,2013-04-30 14:36:00,
2013-04-30 10:42:00,68.8,60.2,29.97,South,180,2.0,2.0,74,0.00,,,0.00,Wunderground v.1.15,2013-04-30 14:42:00,
2013-04-30 10:48:00,69.4,60.0,29.97,SSW,194,1.0,4.0,72,0.00,,,0.00,Wunderground v.1.15,2013-04-30 14:48:00,
2013-04-30 10:54:00,69.5,59.7,29.97,SW,229,3.0,7.0,71,0.00,,,0.00,Wunderground v.1.15,2013-04-30 14:54:00,
2013-04-30 11:00:00,69.7,59.1,29.97,South,175,3.0,3.0,69,0.00,,,0.00,Wunderground v.1.15,2013-04-30 15:00:00,
2013-04-30 11:06:00,70.0,59.0,29.97,South,184,4.0,7.0,68,0.00,,,0.00,Wunderground v.1.15,2013-04-30 15:06:00,
2013-04-30 11:12:00,70.3,59.6,29.97,South,169,3.0,6.0,69,0.00,,,0.00,Wunderground v.1.15,2013-04-30 15:12:00,
2013-04-30 11:18:00,70.7,60.4,29.97,South,171,4.0,6.0,70,0.00,,,0.00,Wunderground v.1.15,2013-04-30 15:18:00,
2013-04-30 11:24:00,70.8,58.4,29.97,South,180,5.0,6.0,65,0.00,,,0.00,Wunderground v.1.15,2013-04-30 15:24:00,
2013-04-30 11:30:00,71.4,60.3,29.97,SSE,154,3.0,5.0,68,0.00,,,0.00,Wunderground v.1.15,2013-04-30 15:30:00,
2013-04-30 11:36:00,71.7,58.9,29.97,SW,222,4.0,5.0,64,0.00,,,0.00,Wunderground v.1.15,2013-04-30 15:36:00,
2013-04-30 11:42:00,71.9,59.5,29.97,SW,233,3.0,3.0,65,0.00,,,0.00,Wunderground v.1.15,2013-04-30 15:42:00,
2013-04-30 11:48:00,72.3,62.0,29.97,SSW,213,3.0,6.0,70,0.00,,,0.00,Wunderground v.1.15,2013-04-30 15:48:00,
2013-04-30 11:54:00,72.6,60.2,29.97,SW,215,4.0,4.0,65,0.00,,,0.00,Wunderground v.1.15,2013-04-30 15:54:00,
2013-04-30 12:00:00,72.9,60.0,29.97,SW,217,4.0,4.0,64,0.00,,,0.00,Wunderground v.1.15,2013-04-30 16:00:00,
2013-04-30 12:06:00,73.0,59.2,29.97,SSW,210,4.0,6.0,62,0.00,,,0.00,Wunderground v.1.15,2013-04-30 16:06:00,
2013-04-30 12:12:00,73.3,59.9,29.97,SW,234,3.0,6.0,63,0.00,,,0.00,Wunderground v.1.15,2013-04-30 16:12:00,
2013-04-30 12:18:00,73.7,60.3,29.97,SW,221,3.0,7.0,63,0.00,,,0.00,Wunderground v.1.15,2013-04-30 16:18:00,
2013-04-30 12:24:00,74.0,59.2,29.97,SSW,202,4.0,4.0,60,0.00,,,0.00,Wunderground v.1.15,2013-04-30 16:24:00,
2013-04-30 12:30:00,74.3,60.0,29.97,SE,142,4.0,4.0,61,0.00,,,0.00,Wunderground v.1.15,2013-04-30 16:30:00,
2013-04-30 12:36:00,74.2,60.3,29.97,SW,234,4.0,7.0,62,0.00,,,0.00,Wunderground v.1.15,2013-04-30 16:36:00,
2013-04-30 12:42:00,74.4,61.9,29.97,SSE,147,3.0,5.0,65,0.00,,,0.00,Wunderground v.1.15,2013-04-30 16:42:00,
2013-04-30 12:48:00,74.4,60.5,29.97,SW,223,4.0,7.0,62,0.00,,,0.00,Wunderground v.1.15,2013-04-30 16:48:00,
2013-04-30 12:54:00,74.8,60.4,29.97,SSE,153,3.0,4.0,61,0.00,,,0.00,Wunderground v.1.15,2013-04-30 16:54:00,
2013-04-30 13:00:00,74.9,60.5,29.96,WSW,240,4.0,4.0,61,0.00,,,0.00,Wunderground v.1.15,2013-04-30 17:00:00,
2013-04-30 13:06:00,75.2,60.8,29.96,SW,223,4.0,11.0,61,0.00,,,0.00,Wunderground v.1.15,2013-04-30 17:06:00,
2013-04-30 13:12:00,75.4,60.5,29.96,SW,233,4.0,5.0,60,0.00,,,0.00,Wunderground v.1.15,2013-04-30 17:12:00,
2013-04-30 13:18:00,75.6,61.2,29.96,SW,234,3.0,5.0,61,0.00,,,0.00,Wunderground v.1.15,2013-04-30 17:18:00,
2013-04-30 13:24:00,75.7,59.9,29.96,WSW,248,3.0,6.0,58,0.00,,,0.00,Wunderground v.1.15,2013-04-30 17:24:00,
2013-04-30 13:30:00,75.7,58.9,29.95,SSE,155,4.0,4.0,56,0.00,,,0.00,Wunderground v.1.15,2013-04-30 17:30:00,
2013-04-30 13:36:00,75.9,59.6,29.95,SW,235,3.0,7.0,57,0.00,,,0.00,Wunderground v.1.15,2013-04-30 17:36:00,
2013-04-30 13:42:00,76.2,63.1,29.95,SSE,161,3.0,3.0,64,0.00,,,0.00,Wunderground v.1.15,2013-04-30 17:42:00,
2013-04-30 13:48:00,76.2,60.8,29.95,ESE,123,4.0,10.0,59,0.00,,,0.00,Wunderground v.1.15,2013-04-30 17:48:00,
2013-04-30 13:54:00,76.3,59.4,29.95,SSW,210,4.0,5.0,56,0.00,,,0.00,Wunderground v.1.15,2013-04-30 17:54:00,
2013-04-30 14:00:00,76.4,62.9,29.94,South,173,3.0,3.0,63,0.00,,,0.00,Wunderground v.1.15,2013-04-30 18:00:00,
2013-04-30 14:06:00,76.7,62.2,29.94,SW,233,2.0,4.0,61,0.00,,,0.00,Wunderground v.1.15,2013-04-30 18:06:00,
2013-04-30 14:12:00,76.9,60.0,29.94,SW,236,3.0,5.0,56,0.00,,,0.00,Wunderground v.1.15,2013-04-30 18:12:00,
2013-04-30 14:18:00,76.9,60.0,29.94,WSW,254,3.0,5.0,56,0.00,,,0.00,Wunderground v.1.15,2013-04-30 18:18:00,
2013-04-30 14:24:00,77.2,61.3,29.94,SW,226,2.0,8.0,58,0.00,,,0.00,Wunderground v.1.15,2013-04-30 18:24:00,
2013-04-30 14:30:00,77.3,63.3,29.93,SSE,162,3.0,3.0,62,0.00,,,0.00,Wunderground v.1.15,2013-04-30 18:30:00,
2013-04-30 14:36:00,77.4,60.0,29.93,SSE,167,3.0,6.0,55,0.00,,,0.00,Wunderground v.1.15,2013-04-30 18:36:00,
2013-04-30 14:42:00,77.7,60.8,29.93,East,97,2.0,3.0,56,0.00,,,0.00,Wunderground v.1.15,2013-04-30 18:42:00,
2013-04-30 14:48:00,77.9,61.4,29.93,SSW,205,2.0,6.0,57,0.00,,,0.00,Wunderground v.1.15,2013-04-30 18:48:00,
2013-04-30 14:54:00,78.0,61.5,29.93,SSE,158,2.0,4.0,57,0.00,,,0.00,Wunderground v.1.15,2013-04-30 18:54:00,
2013-04-30 15:00:00,78.2,61.7,29.93,ESE,117,2.0,7.0,57,0.00,,,0.00,Wunderground v.1.15,2013-04-30 19:00:00,
2013-04-30 15:06:00,78.0,62.0,29.93,SW,224,4.0,8.0,58,0.00,,,0.00,Wunderground v.1.15,2013-04-30 19:06:00,
2013-04-30 15:12:00,77.9,61.4,29.93,SE,135,4.0,5.0,57,0.00,,,0.00,Wunderground v.1.15,2013-04-30 19:12:00,
2013-04-30 15:18:00,77.8,61.8,29.93,ESE,110,5.0,7.0,58,0.00,,,0.00,Wunderground v.1.15,2013-04-30 19:18:00,
2013-04-30 15:24:00,77.9,61.4,29.92,South,187,4.0,5.0,57,0.00,,,0.00,Wunderground v.1.15,2013-04-30 19:24:00,
2013-04-30 15:30:00,78.3,61.8,29.92,SE,136,2.0,4.0,57,0.00,,,0.00,Wunderground v.1.15,2013-04-30 19:30:00,
2013-04-30 15:36:00,78.1,60.1,29.92,South,173,4.0,6.0,54,0.00,,,0.00,Wunderground v.1.15,2013-04-30 19:36:00,
2013-04-30 15:42:00,78.2,60.7,29.92,ESE,113,3.0,4.0,55,0.00,,,0.00,Wunderground v.1.15,2013-04-30 19:42:00,
2013-04-30 15:48:00,78.4,62.4,29.92,ESE,109,1.0,4.0,58,0.00,,,0.00,Wunderground v.1.15,2013-04-30 19:48:00,
2013-04-30 15:54:00,78.9,61.9,29.92,WSW,241,1.0,3.0,56,0.00,,,0.00,Wunderground v.1.15,2013-04-30 19:54:00,
2013-04-30 16:00:00,79.2,61.1,29.92,SSE,161,1.0,2.0,54,0.00,,,0.00,Wunderground v.1.15,2013-04-30 20:00:00,
2013-04-30 16:06:00,79.3,62.7,29.92,SE,141,1.0,2.0,57,0.00,,,0.00,Wunderground v.1.15,2013-04-30 20:06:00,
2013-04-30 16:12:00,79.6,61.0,29.91,NW,304,1.0,1.0,53,0.00,,,0.00,Wunderground v.1.15,2013-04-30 20:12:00,
2013-04-30 16:18:00,79.7,62.6,29.91,East,92,1.0,1.0,56,0.00,,,0.00,Wunderground v.1.15,2013-04-30 20:18:00,
2013-04-30 16:24:00,79.9,63.3,29.91,SSE,161,1.0,4.0,57,0.00,,,0.00,Wunderground v.1.15,2013-04-30 20:24:00,
2013-04-30 16:30:00,80.0,62.9,29.91,WSW,244,1.0,2.0,56,0.00,,,0.00,Wunderground v.1.15,2013-04-30 20:30:00,
2013-04-30 16:36:00,80.0,61.9,29.91,ESE,115,2.0,4.0,54,0.00,,,0.00,Wunderground v.1.15,2013-04-30 20:36:00,
2013-04-30 16:42:00,79.8,61.7,29.91,SE,125,3.0,4.0,54,0.00,,,0.00,Wunderground v.1.15,2013-04-30 20:42:00,
2013-04-30 16:48:00,79.8,63.2,29.91,SSW,192,3.0,4.0,57,0.00,,,0.00,Wunderground v.1.15,2013-04-30 20:48:00,
2013-04-30 16:54:00,80.0,61.3,29.91,SSE,155,2.0,4.0,53,0.00,,,0.00,Wunderground v.1.15,2013-04-30 20:54:00,
2013-04-30 17:00:00,80.0,62.9,29.91,South,177,1.0,5.0,56,0.00,,,0.00,Wunderground v.1.15,2013-04-30 21:00:00,
2013-04-30 17:06:00,80.2,61.0,29.91,SSE,165,1.0,5.0,52,0.00,,,0.00,Wunderground v.1.15,2013-04-30 21:06:00,
2013-04-30 17:12:00,80.3,61.6,29.91,SSE,157,1.0,3.0,53,0.00,,,0.00,Wunderground v.1.15,2013-04-30 21:12:00,
2013-04-30 17:18:00,80.5,61.8,29.91,WSW,248,1.0,4.0,53,0.00,,,0.00,Wunderground v.1.15,2013-04-30 21:18:00,
2013-04-30 17:24:00,80.6,60.8,29.91,SW,223,1.0,4.0,51,0.00,,,0.00,Wunderground v.1.15,2013-04-30 21:24:00,
2013-04-30 17:30:00,80.8,62.6,29.91,SSW,200,1.0,1.0,54,0.00,,,0.00,Wunderground v.1.15,2013-04-30 21:30:00,
2013-04-30 17:36:00,80.8,59.9,29.92,SSE,156,2.0,4.0,49,0.00,,,0.00,Wunderground v.1.15,2013-04-30 21:36:00,
2013-04-30 17:42:00,80.6,61.9,29.91,South,169,2.0,5.0,53,0.00,,,0.00,Wunderground v.1.15,2013-04-30 21:42:00,
2013-04-30 17:48:00,80.5,62.3,29.91,SSE,167,2.0,9.0,54,0.00,,,0.00,Wunderground v.1.15,2013-04-30 21:48:00,
2013-04-30 17:54:00,80.5,61.3,29.92,SSW,205,2.0,3.0,52,0.00,,,0.00,Wunderground v.1.15,2013-04-30 21:54:00,
2013-04-30 18:00:00,80.5,59.6,29.92,SSE,167,1.0,1.0,49,0.00,,,0.00,Wunderground v.1.15,2013-04-30 22:00:00,
2013-04-30 18:06:00,80.8,60.4,29.92,SSW,212,1.0,3.0,50,0.00,,,0.00,Wunderground v.1.15,2013-04-30 22:06:00,
2013-04-30 18:12:00,80.7,60.9,29.92,SW,231,2.0,7.0,51,0.00,,,0.00,Wunderground v.1.15,2013-04-30 22:12:00,
2013-04-30 18:18:00,80.7,61.4,29.92,SW,232,2.0,7.0,52,0.00,,,0.00,Wunderground v.1.15,2013-04-30 22:18:00,
2013-04-30 18:24:00,80.6,60.8,29.92,WSW,242,2.0,5.0,51,0.00,,,0.00,Wunderground v.1.15,2013-04-30 22:24:00,
2013-04-30 18:30:00,80.3,61.6,29.92,SSE,158,3.0,3.0,53,0.00,,,0.00,Wunderground v.1.15,2013-04-30 22:30:00,
2013-04-30 18:36:00,79.9,60.2,29.92,SSW,213,4.0,6.0,51,0.00,,,0.00,Wunderground v.1.15,2013-04-30 22:36:00,
2013-04-30 18:42:00,79.8,60.1,29.92,SSW,213,3.0,3.0,51,0.00,,,0.00,Wunderground v.1.15,2013-04-30 22:42:00,
2013-04-30 18:48:00,79.9,59.0,29.92,SSW,200,1.0,3.0,49,0.00,,,0.00,Wunderground v.1.15,2013-04-30 22:48:00,
2013-04-30 18:54:00,79.9,60.7,29.92,SW,227,2.0,2.0,52,0.00,,,0.00,Wunderground v.1.15,2013-04-30 22:54:00,
2013-04-30 19:00:00,80.0,60.8,29.92,SW,234,1.0,1.0,52,0.00,,,0.00,Wunderground v.1.15,2013-04-30 23:00:00,
2013-04-30 19:06:00,79.8,59.5,29.92,South,177,1.0,3.0,50,0.00,,,0.00,Wunderground v.1.15,2013-04-30 23:06:00,
2013-04-30 19:12:00,79.7,59.4,29.92,SSW,209,1.0,1.0,50,0.00,,,0.00,Wunderground v.1.15,2013-04-30 23:12:00,
2013-04-30 19:18:00,79.5,59.2,29.92,SSW,197,1.0,3.0,50,0.00,,,0.00,Wunderground v.1.15,2013-04-30 23:18:00,
2013-04-30 19:24:00,79.4,58.6,29.92,SW,222,1.0,1.0,49,0.00,,,0.00,Wunderground v.1.15,2013-04-30 23:24:00,
2013-04-30 19:30:00,79.4,59.1,29.92,SSW,196,0.0,4.0,50,0.00,,,0.00,Wunderground v.1.15,2013-04-30 23:30:00,
2013-04-30 19:36:00,79.2,58.4,29.93,SSE,168,2.0,4.0,49,0.00,,,0.00,Wunderground v.1.15,2013-04-30 23:36:00,
2013-04-30 19:42:00,78.9,57.5,29.93,SSE,152,1.0,2.0,48,0.00,,,0.00,Wunderground v.1.15,2013-04-30 23:42:00,
2013-04-30 19:48:00,78.6,57.3,29.93,SSE,152,0.0,2.0,48,0.00,,,0.00,Wunderground v.1.15,2013-04-30 23:48:00,
2013-04-30 19:54:00,78.2,57.5,29.93,SSE,149,1.0,3.0,49,0.00,,,0.00,Wunderground v.1.15,2013-04-30 23:54:00,
2013-04-30 20:00:00,77.7,57.0,29.93,SSE,148,1.0,2.0,49,0.00,,,0.00,Wunderground v.1.15,2013-05-01 00:00:00,
2013-04-30 20:06:00,77.1,55.9,29.93,SE,140,1.0,5.0,48,0.00,,,0.00,Wunderground v.1.15,2013-05-01 00:06:00,
2013-04-30 20:12:00,76.7,56.1,29.94,SE,137,2.0,2.0,49,0.00,,,0.00,Wunderground v.1.15,2013-05-01 00:12:00,
2013-04-30 20:18:00,76.4,55.8,29.94,SE,137,1.0,2.0,49,0.00,,,0.00,Wunderground v.1.15,2013-05-01 00:18:00,
2013-04-30 20:24:00,76.1,56.1,29.94,SE,137,0.0,1.0,50,0.00,,,0.00,Wunderground v.1.15,2013-05-01 00:24:00,
2013-04-30 20:30:00,75.7,55.2,29.94,SE,136,0.0,0.0,49,0.00,,,0.00,Wunderground v.1.15,2013-05-01 00:30:00,
2013-04-30 20:36:00,75.3,54.8,29.94,SE,136,0.0,0.0,49,0.00,,,0.00,Wunderground v.1.15,2013-05-01 00:36:00,
2013-04-30 20:42:00,74.9,55.0,29.95,SE,136,0.0,0.0,50,0.00,,,0.00,Wunderground v.1.15,2013-05-01 00:42:00,
2013-04-30 20:48:00,74.5,54.6,29.95,SE,136,0.0,0.0,50,0.00,,,0.00,Wunderground v.1.15,2013-05-01 00:48:00,
2013-04-30 20:54:00,74.1,54.8,29.94,SE,136,0.0,0.0,51,0.00,,,0.00,Wunderground v.1.15,2013-05-01 00:54:00,
2013-04-30 21:00:00,73.8,54.5,29.94,SE,136,0.0,0.0,51,0.00,,,0.00,Wunderground v.1.15,2013-05-01 01:00:00,
2013-04-30 21:06:00,73.3,54.1,29.95,SE,136,0.0,0.0,51,0.00,,,0.00,Wunderground v.1.15,2013-05-01 01:06:00,
2013-04-30 21:12:00,72.9,54.2,29.95,SE,136,0.0,0.0,52,0.00,,,0.00,Wunderground v.1.15,2013-05-01 01:12:00,
2013-04-30 21:18:00,72.6,54.5,29.95,SE,137,0.0,0.0,53,0.00,,,0.00,Wunderground v.1.15,2013-05-01 01:18:00,
2013-04-30 21:24:00,72.2,54.1,29.95,SE,137,0.0,0.0,53,0.00,,,0.00,Wunderground v.1.15,2013-05-01 01:24:00,
2013-04-30 21:30:00,71.9,54.3,29.95,SE,137,0.0,0.0,54,0.00,,,0.00,Wunderground v.1.15,2013-05-01 01:30:00,
2013-04-30 21:36:00,71.6,54.1,29.95,SE,137,0.0,0.0,54,0.00,,,0.00,Wunderground v.1.15,2013-05-01 01:36:00,
2013-04-30 21:42:00,71.2,54.2,29.96,SE,136,0.0,0.0,55,0.00,,,0.00,Wunderground v.1.15,2013-05-01 01:42:00,
2013-04-30 21:48:00,70.7,53.7,29.96,SE,136,0.0,0.0,55,0.00,,,0.00,Wunderground v.1.15,2013-05-01 01:48:00,
2013-04-30 21:54:00,70.3,54.3,29.96,SE,137,0.0,0.0,57,0.00,,,0.00,Wunderground v.1.15,2013-05-01 01:54:00,
2013-04-30 22:00:00,69.6,54.2,29.96,SE,136,0.0,0.0,58,0.00,,,0.00,Wunderground v.1.15,2013-05-01 02:00:00,
2013-04-30 22:06:00,69.0,54.5,29.96,SE,136,0.0,0.0,60,0.00,,,0.00,Wunderground v.1.15,2013-05-01 02:06:00,
2013-04-30 22:12:00,68.4,54.4,29.97,SE,136,0.0,0.0,61,0.00,,,0.00,Wunderground v.1.15,2013-05-01 02:12:00,
2013-04-30 22:18:00,67.9,54.4,29.97,SE,136,0.0,0.0,62,0.00,,,0.00,Wunderground v.1.15,2013-05-01 02:18:00,
2013-04-30 22:24:00,67.5,54.0,29.97,SE,136,0.0,0.0,62,0.00,,,0.00,Wunderground v.1.15,2013-05-01 02:24:00,
2013-04-30 22:30:00,67.3,54.3,29.97,SE,136,0.0,0.0,63,0.00,,,0.00,Wunderground v.1.15,2013-05-01 02:30:00,
2013-04-30 22:36:00,67.0,54.0,29.97,SE,136,0.0,0.0,63,0.00,,,0.00,Wunderground v.1.15,2013-05-01 02:36:00,
2013-04-30 22:42:00,66.7,54.1,29.98,SE,136,0.0,0.0,64,0.00,,,0.00,Wunderground v.1.15,2013-05-01 02:42:00,
2013-04-30 22:48:00,66.6,54.5,29.98,SE,136,0.0,0.0,65,0.00,,,0.00,Wunderground v.1.15,2013-05-01 02:48:00,
2013-04-30 22:54:00,66.6,54.5,29.98,SE,136,0.0,0.0,65,0.00,,,0.00,Wunderground v.1.15,2013-05-01 02:54:00,
2013-04-30 23:00:00,66.1,54.4,29.98,SE,136,0.0,0.0,66,0.00,,,0.00,Wunderground v.1.15,2013-05-01 03:00:00,
2013-04-30 23:06:00,65.5,54.7,29.98,SE,136,0.0,0.0,68,0.00,,,0.00,Wunderground v.1.15,2013-05-01 03:06:00,
2013-04-30 23:12:00,65.1,54.7,29.98,SE,136,0.0,0.0,69,0.00,,,0.00,Wunderground v.1.15,2013-05-01 03:12:00,
2013-04-30 23:18:00,64.8,54.4,29.98,SE,136,0.0,0.0,69,0.00,,,0.00,Wunderground v.1.15,2013-05-01 03:18:00,
2013-04-30 23:24:00,64.7,54.7,29.98,SE,136,0.0,0.0,70,0.00,,,0.00,Wunderground v.1.15,2013-05-01 03:24:00,
2013-04-30 23:30:00,64.6,54.6,29.99,SE,136,0.0,0.0,70,0.00,,,0.00,Wunderground v.1.15,2013-05-01 03:30:00,
2013-04-30 23:36:00,64.5,54.5,29.99,SE,136,0.0,0.0,70,0.00,,,0.00,Wunderground v.1.15,2013-05-01 03:36:00,
2013-04-30 23:42:00,64.1,54.5,29.99,SE,136,0.0,0.0,71,0.00,,,0.00,Wunderground v.1.15,2013-05-01 03:42:00,
2013-04-30 23:48:00,63.6,54.4,29.99,SE,136,0.0,0.0,72,0.00,,,0.00,Wunderground v.1.15,2013-05-01 03:48:00,
2013-04-30 23:54:00,63.2,54.0,30.00,SE,136,0.0,0.0,72,0.00,,,0.00,Wunderground v.1.15,2013-05-01 03:54:00,